timestamp,wind_dir_avg,wind_spd_avg,wind_spd_max_dir,wind_spd_gust,battery_voltage,lat,long
2024-04-14 00:04:01+00:00,315.0,0.01,203.0,0.0,12.25,47.59359,-54.27349
2024-04-14 00:14:00+00:00,197.0,11.91,200.0,12.61,12.17,47.59359,-54.27349
2024-04-14 00:24:00+00:00,217.0,8.45,218.0,8.46,12.17,47.59359,-54.27349
2024-04-14 00:34:00+00:00,203.0,11.62,204.0,11.63,12.17,47.59359,-54.27349
2024-04-14 00:44:00+00:00,205.0,10.48,204.0,11.68,12.17,47.59359,-54.27349
2024-04-14 00:54:00+00:00,199.0,12.65,199.0,13.91,12.17,47.59359,-54.27349
2024-04-14 01:04:00+00:00,200.0,13.69,202.0,14.41,12.17,47.59359,-54.27349
2024-04-14 01:14:00+00:00,199.0,13.39,196.0,14.32,12.17,47.59359,-54.27349
2024-04-14 01:24:00+00:00,198.0,13.2,195.0,14.82,12.17,47.59359,-54.27349
2024-04-14 01:34:00+00:00,198.0,13.83,196.0,14.77,12.17,47.59359,-54.27349
2024-04-14 01:44:00+00:00,202.0,14.09,204.0,15.62,12.17,47.59359,-54.27349
2024-04-14 01:54:00+00:00,198.0,12.64,203.0,14.13,12.17,47.59359,-54.27349
2024-04-14 02:04:00+00:00,200.0,12.17,192.0,13.82,12.17,47.59359,-54.27349
2024-04-14 02:14:00+00:00,197.0,13.4,199.0,14.82,12.17,47.59359,-54.27349
2024-04-14 02:24:00+00:00,196.0,14.24,194.0,15.25,12.17,47.59359,-54.27349
2024-04-14 02:34:00+00:00,315.0,0.01,195.0,0.0,12.17,47.59359,-54.27349
2024-04-14 02:44:00+00:00,315.0,0.01,202.0,0.0,12.17,47.59359,-54.27349
2024-04-14 02:54:00+00:00,206.0,13.89,208.0,15.63,12.17,47.59359,-54.27349
2024-04-14 03:04:00+00:00,201.0,16.06,202.0,17.7,12.17,47.59359,-54.27349
2024-04-14 03:14:00+00:00,315.0,0.01,205.0,0.0,12.17,47.59359,-54.27349
2024-04-14 03:24:00+00:00,202.0,13.96,203.0,14.11,12.17,47.59359,-54.27349
2024-04-14 03:34:00+00:00,202.0,14.46,203.0,15.24,12.17,47.59359,-54.27349
2024-04-14 03:44:00+00:00,212.0,14.84,221.0,17.02,12.17,47.59359,-54.27349
2024-04-14 03:54:00+00:00,315.0,0.01,197.0,0.0,12.17,47.59359,-54.27349
2024-04-14 04:04:00+00:00,315.0,0.01,200.0,0.0,12.17,47.59359,-54.27349
2024-04-14 04:14:00+00:00,195.0,15.02,191.0,16.72,12.17,47.59359,-54.27349
2024-04-14 04:24:00+00:00,198.0,14.62,203.0,15.06,12.17,47.59359,-54.27349
2024-04-14 04:34:00+00:00,204.0,14.92,206.0,16.52,12.17,47.59359,-54.27349
2024-04-14 04:44:00+00:00,209.0,13.57,209.0,15.11,12.17,47.59359,-54.27349
2024-04-14 04:54:00+00:00,205.0,14.22,205.0,15.63,12.17,47.59359,-54.27349
2024-04-14 05:04:00+00:00,206.0,14.1,207.0,14.37,12.17,47.59359,-54.27349
2024-04-14 05:14:00+00:00,206.0,13.81,204.0,14.41,12.09,47.59359,-54.27349
2024-04-14 05:24:00+00:00,196.0,14.17,198.0,15.44,12.09,47.59359,-54.27349
2024-04-14 05:34:00+00:00,197.0,14.8,199.0,15.37,12.09,47.59359,-54.27349
2024-04-14 05:44:00+00:00,197.0,12.89,201.0,14.57,12.09,47.59359,-54.27349
2024-04-14 05:54:00+00:00,207.0,13.16,208.0,14.43,12.09,47.59359,-54.27349
2024-04-14 06:04:00+00:00,207.0,13.57,210.0,14.18,12.09,47.59359,-54.27349
2024-04-14 06:14:00+00:00,207.0,13.36,208.0,14.52,12.09,47.59359,-54.27349
2024-04-14 06:24:00+00:00,213.0,12.72,214.0,12.73,12.09,47.59359,-54.27349
2024-04-14 06:34:00+00:00,211.0,13.02,210.0,13.15,12.09,47.59359,-54.27349
2024-04-14 06:44:00+00:00,202.0,15.62,200.0,18.44,12.09,47.59359,-54.27349
2024-04-14 06:54:00+00:00,209.0,14.32,220.0,17.03,12.09,47.59359,-54.27349
2024-04-14 07:04:00+00:00,203.0,14.24,204.0,16.66,12.09,47.59359,-54.27349
2024-04-14 07:14:00+00:00,205.0,13.58,206.0,14.95,12.09,47.59359,-54.27349
2024-04-14 07:24:00+00:00,203.0,14.6,203.0,16.71,12.09,47.59359,-54.27349
2024-04-14 07:34:00+00:00,199.0,18.27,209.0,19.58,12.09,47.59359,-54.27349
2024-04-14 07:44:00+00:00,200.0,18.55,198.0,21.47,12.09,47.59359,-54.27349
2024-04-14 07:54:00+00:00,315.0,0.01,200.0,0.0,12.09,47.59359,-54.27349
2024-04-14 08:04:00+00:00,202.0,15.73,202.0,16.51,12.09,47.59359,-54.27349
2024-04-14 08:14:00+00:00,201.0,16.41,202.0,19.11,12.01,47.59359,-54.27349
2024-04-14 08:24:00+00:00,201.0,17.45,209.0,19.85,12.01,47.59359,-54.27349
2024-04-14 08:34:00+00:00,315.0,0.01,200.0,0.0,12.01,47.59359,-54.27349
2024-04-14 08:44:00+00:00,185.0,15.15,183.0,16.63,12.01,47.59359,-54.27349
2024-04-14 08:54:00+00:00,193.0,17.66,198.0,17.79,12.01,47.59359,-54.27349
2024-04-14 09:04:00+00:00,315.0,0.01,196.0,0.0,12.01,47.59359,-54.27349
2024-04-14 09:14:01+00:00,179.0,16.01,179.0,16.67,12.01,47.59359,-54.27349
2024-04-14 09:24:01+00:00,315.0,0.01,203.0,0.0,12.01,47.59359,-54.27349
2024-04-14 09:34:01+00:00,201.0,15.2,202.0,16.7,12.01,47.59359,-54.27349
2024-04-14 09:44:01+00:00,190.0,15.24,183.0,15.45,12.01,47.59359,-54.27349
2024-04-14 09:54:01+00:00,198.0,17.99,199.0,19.84,12.01,47.59359,-54.27349
2024-04-14 10:04:01+00:00,193.0,14.51,181.0,16.97,12.01,47.59359,-54.27349
2024-04-14 10:14:01+00:00,186.0,16.09,183.0,18.16,12.01,47.59359,-54.27349
2024-04-14 10:24:01+00:00,181.0,15.86,178.0,18.31,12.01,47.59359,-54.27349
2024-04-14 10:34:01+00:00,182.0,16.65,183.0,18.25,12.01,47.59359,-54.27349
2024-04-14 10:44:01+00:00,179.0,17.6,177.0,21.2,12.01,47.59359,-54.27349
2024-04-14 10:54:01+00:00,183.0,19.1,178.0,24.4,12.01,47.59359,-54.27349
2024-04-14 11:04:01+00:00,184.0,19.26,184.0,21.78,12.01,47.59359,-54.27349
2024-04-14 11:14:00+00:00,181.0,17.06,180.0,20.75,12.09,47.59359,-54.27349
2024-04-14 11:24:00+00:00,183.0,19.9,180.0,24.05,12.09,47.59359,-54.27349
2024-04-14 11:34:00+00:00,194.0,20.59,194.0,24.55,12.09,47.59359,-54.27349
2024-04-14 11:44:00+00:00,194.0,19.4,198.0,23.24,12.09,47.59359,-54.27349
2024-04-14 11:54:00+00:00,216.0,17.55,219.0,22.31,12.09,47.59359,-54.27349
2024-04-14 12:04:00+00:00,222.0,18.88,221.0,21.63,12.09,47.59359,-54.27349
2024-04-14 12:14:00+00:00,221.0,16.77,220.0,20.16,12.17,47.59359,-54.27349
2024-04-14 12:24:00+00:00,217.0,14.66,221.0,17.21,12.17,47.59359,-54.27349
2024-04-14 12:34:00+00:00,218.0,14.53,224.0,17.27,12.17,47.59359,-54.27349
2024-04-14 12:44:00+00:00,208.0,12.4,203.0,13.12,12.17,47.59359,-54.27349
2024-04-14 12:54:00+00:00,211.0,9.67,208.0,10.53,12.17,47.59359,-54.27349
2024-04-14 13:04:00+00:00,217.0,9.98,227.0,11.34,12.17,47.59359,-54.27349
2024-04-14 13:14:00+00:00,210.0,10.05,205.0,11.85,12.89,47.59359,-54.27349
2024-04-14 13:24:00+00:00,208.0,10.46,205.0,11.98,12.89,47.59359,-54.27349
2024-04-14 13:34:00+00:00,207.0,11.75,206.0,13.16,12.89,47.59359,-54.27349
2024-04-14 13:44:00+00:00,204.0,12.03,203.0,13.57,12.89,47.59359,-54.27349
2024-04-14 13:54:00+00:00,205.0,13.51,202.0,14.96,12.89,47.59359,-54.27349
2024-04-14 14:04:00+00:00,204.0,11.95,206.0,12.38,12.89,47.59359,-54.27349
2024-04-14 14:14:00+00:00,203.0,12.35,201.0,13.37,13.37,47.59359,-54.27349
2024-04-14 14:24:00+00:00,208.0,10.01,209.0,11.01,13.37,47.59359,-54.27349
2024-04-14 14:34:00+00:00,216.0,9.01,211.0,10.2,13.37,47.59359,-54.27349
2024-04-14 14:44:00+00:00,219.0,8.4,210.0,10.42,13.37,47.59359,-54.27349
2024-04-14 14:54:00+00:00,214.0,8.81,215.0,8.82,13.37,47.59359,-54.27349
2024-04-14 15:04:00+00:00,212.0,9.14,209.0,10.8,13.37,47.59359,-54.27349
2024-04-14 15:14:00+00:00,205.0,8.27,204.0,10.11,13.29,47.59359,-54.27349
2024-04-14 15:24:00+00:00,202.0,9.99,212.0,11.72,13.29,47.59359,-54.27349
2024-04-14 15:34:00+00:00,194.0,11.83,194.0,13.18,13.29,47.59359,-54.27349
2024-04-14 15:44:00+00:00,193.0,11.77,194.0,13.59,13.29,47.59359,-54.27349
2024-04-14 15:54:00+00:00,196.0,13.37,196.0,16.04,13.29,47.59359,-54.27349
2024-04-14 16:04:00+00:00,201.0,11.97,201.0,13.42,13.29,47.59359,-54.27349
2024-04-14 16:14:00+00:00,203.0,12.06,199.0,13.78,13.68,47.59359,-54.27349
2024-04-14 16:24:00+00:00,198.0,13.18,198.0,15.2,13.68,47.59359,-54.27349
2024-04-14 16:34:00+00:00,196.0,14.71,196.0,16.47,13.68,47.59359,-54.27349
2024-04-14 16:44:00+00:00,196.0,14.49,199.0,16.89,13.68,47.59359,-54.27349
2024-04-14 16:54:00+00:00,196.0,14.72,193.0,16.76,13.68,47.59359,-54.27349
2024-04-14 17:04:00+00:00,195.0,15.7,194.0,18.32,13.68,47.59359,-54.27349
2024-04-14 17:14:00+00:00,196.0,16.2,196.0,18.75,13.68,47.59359,-54.27349
2024-04-14 17:24:00+00:00,196.0,14.55,194.0,16.59,13.68,47.59359,-54.27349
2024-04-14 17:34:00+00:00,196.0,13.84,196.0,15.72,13.68,47.59359,-54.27349
2024-04-14 17:44:00+00:00,195.0,13.68,203.0,15.4,13.68,47.59359,-54.27349
2024-04-14 17:54:00+00:00,195.0,14.06,196.0,15.95,13.68,47.59359,-54.27349
2024-04-14 18:04:00+00:00,200.0,12.16,201.0,13.73,13.68,47.59359,-54.27349
2024-04-14 18:14:00+00:00,205.0,12.41,207.0,13.8,13.44,47.59359,-54.27349
2024-04-14 18:24:00+00:00,203.0,12.7,206.0,13.88,13.44,47.59359,-54.27349
2024-04-14 18:34:00+00:00,198.0,9.33,197.0,10.14,13.44,47.59359,-54.27349
2024-04-14 18:44:00+00:00,197.0,9.2,200.0,10.02,13.44,47.59359,-54.27349
2024-04-14 18:54:00+00:00,207.0,10.08,207.0,11.29,13.44,47.59359,-54.27349
2024-04-14 19:04:00+00:00,208.0,10.16,205.0,11.42,13.44,47.59359,-54.27349
2024-04-14 19:14:01+00:00,209.0,10.55,205.0,12.53,13.37,47.59359,-54.27349
2024-04-14 19:24:01+00:00,213.0,8.3,213.0,9.76,13.37,47.59359,-54.27349
2024-04-14 19:34:01+00:00,214.0,8.48,207.0,9.9,13.37,47.59359,-54.27349
2024-04-14 19:44:01+00:00,208.0,10.08,209.0,10.97,13.37,47.59359,-54.27349
2024-04-14 19:54:01+00:00,219.0,7.64,217.0,8.86,13.37,47.59359,-54.27349
2024-04-14 20:04:01+00:00,222.0,6.64,221.0,7.96,13.37,47.59359,-54.27349
2024-04-14 20:14:00+00:00,210.0,7.37,216.0,8.48,13.05,47.59359,-54.27349
2024-04-14 20:24:00+00:00,214.0,7.53,211.0,9.3,13.05,47.59359,-54.27349
2024-04-14 20:34:00+00:00,213.0,8.65,208.0,9.95,13.05,47.59359,-54.27349
2024-04-14 20:44:00+00:00,216.0,7.15,216.0,8.43,13.05,47.59359,-54.27349
2024-04-14 20:54:00+00:00,218.0,8.04,212.0,10.01,13.05,47.59359,-54.27349
2024-04-14 21:04:00+00:00,199.0,8.92,196.0,10.23,13.05,47.59359,-54.27349
2024-04-14 21:14:00+00:00,207.0,8.49,213.0,9.28,12.73,47.59359,-54.27349
2024-04-14 21:24:00+00:00,209.0,9.7,216.0,10.88,12.73,47.59359,-54.27349
2024-04-14 21:34:00+00:00,205.0,9.34,210.0,10.62,12.73,47.59359,-54.27349
2024-04-14 21:44:00+00:00,207.0,9.51,210.0,10.51,12.73,47.59359,-54.27349
2024-04-14 21:54:00+00:00,218.0,10.29,225.0,11.63,12.73,47.59359,-54.27349
2024-04-14 22:04:00+00:00,213.0,9.56,214.0,10.94,12.73,47.59359,-54.27349
2024-04-14 22:14:00+00:00,218.0,10.13,227.0,11.73,12.41,47.59359,-54.27349
2024-04-14 22:24:00+00:00,221.0,9.84,232.0,11.9,12.41,47.59359,-54.27349
2024-04-14 22:34:00+00:00,221.0,10.42,225.0,11.89,12.41,47.59359,-54.27349
2024-04-14 22:44:00+00:00,220.0,10.56,228.0,12.0,12.41,47.59359,-54.27349
2024-04-14 22:54:00+00:00,210.0,10.33,216.0,11.93,12.41,47.59359,-54.27349
2024-04-14 23:04:00+00:00,207.0,8.99,206.0,9.19,12.41,47.59359,-54.27349
2024-04-14 23:14:00+00:00,200.0,9.59,201.0,9.6,12.25,47.59359,-54.27349
2024-04-14 23:24:00+00:00,315.0,0.01,217.0,0.0,12.25,47.59359,-54.27349
2024-04-14 23:34:00+00:00,213.0,7.77,214.0,7.78,12.25,47.59359,-54.27349
2024-04-14 23:44:00+00:00,315.0,0.01,213.0,0.0,12.25,47.59359,-54.27349
2024-04-14 23:54:00+00:00,315.0,0.01,213.0,0.0,12.25,47.59359,-54.27349
